Vertical_Velocity
-1 -0 1 0 1 -0 -2 -2 0 -0 -2 -1 -0 -3 0 -1 -6 2 2 7 -8 -1 -5 -4 7 -3 -4 -5 -3 -1 -4 -0 -0 -2 2 3 -2 3 3 -6 3 5 -10 -4 -1
-1 -1 -0 0 1 0 -1 -2 0 0 -1 -2 0 -2 1 -2 -2 -4 13 10 -3 1 -21 4 -5 2 2 1 -1 -4 -2 -2 -2 -1 -2 -1 -6 -3 -3 4 5 2 8 2 -1
-1 -1 -1 -1 1 1 0 -1 -1 -1 -0 -1 1 -2 -0 -2 -1 4 9 4 -0 -9 0 1 2 -11 -6 -3 0 0 -2 -0 1 -2 -2 -2 4 -0 -5 3 -3 -13 -2 -4 -0
-1 -2 -1 -1 0 0 0 -0 0 -2 1 -2 -0 -0 -1 -1 -4 4 4 4 1 -8 -7 -8 -7 -7 -1 -1 -1 -0 0 1 4 2 -1 -1 1 2 2 -3 -3 -5 -8 -5 -2
-1 -1 -0 0 -0 -0 -0 -1 -0 -1 -0 -0 -1 1 -1 -2 -3 5 5 7 -5 0 -5 -3 -4 -4 -2 1 -1 -1 -0 4 1 4 3 1 1 -5 2 2 0 3 3 -3 -1
-0 -1 -0 0 1 -0 -1 -1 -1 -2 -1 0 -1 0 -1 -2 -0 3 5 2 1 3 4 5 4 10 -10 -0 -0 -2 1 1 2 2 4 -8 2 -7 7 2 2 -1 -1 -1 -2
-0 -0 -1 -1 0 1 0 -1 -1 -0 -1 0 -0 -1 -1 0 -1 -2 3 6 3 5 3 6 8 9 -7 1 -3 -0 0 -0 1 1 2 -6 -4 0 -0 4 1 -0 -2 0 2
0 -1 -2 -1 -0 1 1 -0 -0 -2 -1 -0 -1 -1 -3 -1 -1 -0 -3 -1 2 2 -1 10 2 5 5 5 2 -0 -5 -1 -2 0 0 -6 -1 2 3 -4 2 1 -0 1 -2
-1 1 1 -0 -1 -0 1 -0 -2 -0 -1 1 -0 -2 -1 -2 -6 5 2 1 2 6 -1 2 8 1 3 -2 -3 -1 -1 0 0 -0 -1 -5 1 1 4 2 1 2 -1 -0 7
-1 1 -0 -0 -0 1 0 1 -0 1 -1 1 -1 -2 -0 -1 -2 -5 2 0 0 1 2 -0 1 -1 -1 -3 -5 -3 0 1 -1 -1 2 1 0 3 0 1 -4 -1 1 1 3
-1 -2 -1 1 -1 -1 3 1 1 0 1 -2 2 2 -1 4 6 -4 4 -0 6 2 -1 -0 -6 -2 -4 -3 -2 -0 1 -1 -0 -0 -4 -2 -0 -1 -0 5 4 1 0 -0 -4
-2 -3 -2 -1 -2 -2 1 0 -0 11 -11 3 2 -8 -0 5 6 -3 4 -2 -1 -1 -1 -9 -2 -4 -0 1 1 1 -0 0 -0 1 -3 0 -1 -1 0 -7 -6 -5 -0 -0 5
-1 -3 -4 -2 -1 -1 4 -4 0 5 0 -12 -1 -2 -2 -1 -1 -2 1 0 -1 -0 -0 -3 -9 0 0 1 -2 -0 -2 0 -3 1 -1 -2 -3 4 2 4 3 3 2 3 -3
-2 -2 -3 -0 1 1 3 1 -0 0 -9 -14 -2 -6 -5 2 -3 2 -2 0 -0 -2 -1 -3 -4 0 -1 -0 -3 -1 -1 -0 -1 -3 -4 -5 -8 -1 1 2 3 1 -2 -3 -1
-0 -2 -1 -3 -3 1 1 4 3 -1 -6 -7 -3 4 4 -5 1 -1 -2 7 -1 -1 -9 -15 -1 -0 -2 1 -2 -6 -1 0 0 -1 -3 -2 -5 -13 -1 4 0 2 2 5 2
1 -3 -4 -2 -4 1 -2 1 3 -25 -13 -4 -1 -1 -2 1 1 4 1 4 2 -1 -1 -4 2 0 -3 1 0 0 -3 -3 -2 -2 -5 -3 -5 -5 -0 -6 1 4 8 1 -6
0 4 -5 -3 -1 0 -2 1 -17 -7 -11 -3 -2 -0 -1 0 -0 0 -1 -1 -5 -6 -2 -5 -2 -3 -0 -4 -3 -4 -6 -5 -6 -7 -7 -1 -5 -2 -2 0 -6 -1 4 2 -5
-1 -2 -2 1 -1 -1 1 -13 -1 -5 -2 -3 0 -0 -3 -3 -3 1 -0 -1 1 -2 -2 -3 -10 -1 -1 -3 -5 1 -7 -8 -4 -2 -3 -3 -1 -3 3 5 3 1 2 3 -0
-2 1 -1 2 -3 -1 0 -4 -11 -2 1 0 -5 -1 -0 0 -3 -1 -0 -2 -1 -2 -8 -2 -3 -3 0 0 -8 -2 -3 -5 -5 -1 -7 0 -2 -4 -2 -0 3 1 2 -6 1
-4 -0 -0 -0 2 4 -9 -4 -1 -0 0 -2 0 -3 -0 -1 -2 -2 -2 -2 1 -1 -1 -2 -5 -1 -4 -5 -2 -6 -5 -9 -5 -3 0 -2 0 -0 -2 -0 2 3 3 3 0
-3 -2 4 -1 6 -1 -5 -5 -0 1 1 0 0 -0 -3 -2 -2 0 -0 -1 -1 0 -1 -2 -9 -10 -7 -3 1 -7 -3 -5 -9 -4 -5 -2 -3 3 2 2 2 4 4 4 4
-3 -5 6 4 -6 1 -1 -3 4 -2 -0 -2 -0 0 -1 -0 -0 -1 -1 -0 1 1 -1 0 -4 -1 -1 -1 1 -1 -0 -2 -7 -1 -1 -5 -6 1 1 2 -1 3 4 6 6
-2 -3 8 5 -4 -2 -3 -2 0 1 -1 -0 -0 0 -1 -2 -10 -1 0 0 0 -1 -3 -4 -3 -4 -13 -16 -8 -2 -0 -0 -1 -3 0 -6 -3 1 -1 1 4 -1 0 1 0
-2 -6 -5 1 0 -1 -0 -2 -2 -1 -1 1 -3 3 -1 -1 -1 -2 1 0 1 -1 0 -6 -1 -7 -10 -9 -2 -2 -1 0 -3 -3 -2 -2 2 2 1 0 3 2 2 2 2
-3 -1 1 -4 -5 -1 0 1 -0 -2 1 2 0 -0 -4 -3 -1 -0 0 0 -2 1 -1 -8 -3 -1 0 0 -0 -0 1 -0 -0 -1 -7 -4 -2 1 1 1 3 5 1 -1 -1
-1 -2 -2 -1 -0 1 -2 -2 1 -5 -1 -3 -2 1 -2 -5 -9 -4 -5 -2 -3 -2 -1 -1 -2 -1 -1 -1 -0 -0 -0 -0 -0 1 -1 -1 2 -1 2 1 -2 -1 -1 -0 0
1 3 2 1 -2 -3 -1 -3 -3 1 -0 2 1 -7 -3 0 -2 1 -0 -4 -7 -6 -0 -3 -2 -2 -2 0 -1 -6 1 0 0 -0 -7 -3 -3 0 0 1 0 0 -0 -1 -1
Height
1519 1517 1515 1513 1511 1509 1507 1505 1504 1503 1502 1501 1500 1499 1500 1500 1501 1500 1501 1505 1503 1503 1503 1503 1503 1503 1504 1504 1506 1507 1513 1517 1509 1508 1510 1512 1514 1521 1519 1520 1524 1526 1529 1534 1540
1518 1516 1514 1512 1510 1509 1507 1505 1503 1502 1501 1500 1499 1499 1499 1500 1500 1500 1503 1503 1503 1505 1504 1502 1504 1503 1504 1506 1507 1508 1514 1509 1498 1497 1504 1510 1512 1515 1520 1525 1526 1527 1533 1538 1542
1518 1515 1513 1511 1509 1508 1506 1504 1502 1500 1499 1499 1498 1498 1498 1499 1499 1500 1501 1502 1504 1504 1505 1504 1505 1507 1510 1512 1510 1508 1511 1501 1498 1498 1502 1509 1516 1515 1520 1525 1524 1525 1532 1538 1543
1517 1514 1512 1510 1508 1507 1505 1503 1501 1499 1498 1497 1497 1497 1498 1499 1503 1500 1501 1503 1503 1504 1505 1505 1505 1506 1501 1512 1510 1508 1504 1503 1500 1502 1509 1511 1514 1517 1516 1518 1525 1529 1534 1538 1543
1516 1514 1511 1509 1507 1505 1504 1502 1500 1498 1497 1496 1496 1496 1498 1500 1499 1498 1500 1502 1504 1505 1505 1506 1509 1516 1517 1510 1511 1509 1510 1503 1501 1504 1508 1510 1513 1516 1521 1524 1528 1533 1537 1540 1543
1516 1513 1510 1507 1505 1504 1503 1501 1499 1498 1496 1496 1496 1496 1498 1500 1499 1498 1499 1501 1504 1506 1507 1507 1508 1513 1511 1509 1511 1508 1511 1506 1506 1506 1509 1512 1517 1517 1523 1525 1530 1535 1539 1541 1543
1515 1512 1509 1506 1504 1502 1502 1500 1498 1497 1496 1496 1496 1496 1498 1499 1499 1498 1499 1501 1503 1504 1504 1505 1507 1509 1507 1511 1508 1508 1510 1509 1510 1510 1513 1514 1523 1522 1522 1527 1530 1536 1539 1543 1545
1514 1511 1508 1505 1503 1501 1500 1498 1497 1496 1495 1495 1496 1497 1496 1497 1498 1498 1499 1500 1502 1503 1503 1503 1505 1504 1504 1505 1509 1511 1513 1522 1510 1511 1514 1516 1533 1524 1525 1527 1531 1535 1538 1541 1545
1514 1510 1507 1504 1502 1500 1498 1497 1496 1495 1495 1495 1497 1497 1497 1496 1497 1498 1499 1500 1501 1501 1501 1500 1502 1502 1500 1505 1516 1515 1526 1521 1514 1508 1511 1515 1528 1523 1525 1527 1529 1534 1538 1542 1544
1512 1509 1506 1502 1500 1499 1498 1496 1496 1495 1496 1496 1497 1500 1496 1496 1496 1496 1498 1499 1499 1499 1499 1499 1500 1502 1505 1513 1532 1521 1520 1517 1517 1509 1510 1515 1518 1520 1523 1526 1528 1532 1535 1539 1542
1511 1507 1505 1502 1499 1498 1498 1496 1499 1498 1496 1494 1496 1495 1494 1495 1495 1496 1497 1498 1498 1498 1502 1500 1509 1516 1507 1502 1497 1503 1510 1511 1506 1503 1510 1513 1516 1516 1521 1526 1528 1530 1533 1536 1540
1509 1506 1503 1500 1499 1498 1498 1499 1502 1506 1498 1492 1492 1493 1492 1494 1495 1495 1497 1499 1497 1503 1500 1506 1511 1495 1495 1498 1499 1499 1506 1511 1502 1501 1508 1515 1516 1515 1517 1517 1522 1527 1532 1535 1539
1508 1504 1501 1500 1498 1498 1499 1501 1501 1500 1499 1491 1489 1490 1491 1493 1493 1493 1496 1497 1498 1501 1501 1510 1498 1491 1493 1498 1499 1504 1506 1506 1508 1506 1508 1513 1523 1515 1512 1518 1526 1528 1531 1534 1536
1506 1502 1500 1498 1500 1498 1499 1501 1500 1498 1512 1496 1488 1487 1490 1491 1492 1492 1494 1497 1498 1501 1502 1504 1494 1492 1495 1497 1500 1510 1498 1500 1507 1516 1533 1512 1547 1517 1509 1514 1520 1525 1529 1531 1535
1504 1500 1498 1498 1497 1497 1499 1499 1498 1499 1536 1488 1485 1484 1486 1490 1490 1489 1491 1494 1498 1498 1502 1506 1496 1496 1499 1497 1496 1504 1498 1503 1504 1520 1522 1522 1537 1521 1511 1517 1514 1518 1524 1529 1533
1503 1498 1496 1496 1495 1497 1497 1497 1499 1519 1532 1489 1482 1483 1486 1487 1488 1489 1491 1493 1495 1497 1499 1500 1494 1493 1494 1494 1495 1497 1503 1516 1526 1533 1551 1530 1534 1532 1522 1510 1512 1516 1520 1525 1532
1498 1495 1492 1493 1494 1495 1496 1498 1520 1533 1493 1490 1487 1484 1487 1491 1489 1489 1492 1497 1506 1515 1514 1505 1502 1496 1494 1501 1499 1505 1524 1552 1549 1555 1554 1534 1539 1534 1519 1507 1507 1514 1522 1527 1533
1493 1489 1488 1489 1491 1493 1496 1501 1523 1507 1500 1485 1484 1488 1493 1491 1490 1490 1496 1504 1498 1504 1524 1527 1528 1500 1495 1500 1507 1510 1521 1552 1548 1561 1550 1535 1559 1539 1524 1519 1520 1524 1530 1531 1533
1489 1486 1484 1485 1487 1491 1495 1518 1514 1506 1492 1490 1486 1491 1493 1489 1489 1491 1497 1503 1497 1498 1515 1524 1518 1499 1496 1497 1501 1511 1525 1519 1546 1553 1557 1559 1542 1531 1530 1530 1528 1530 1533 1535 1537
1487 1484 1484 1485 1487 1491 1497 1510 1502 1496 1493 1490 1495 1492 1501 1493 1493 1496 1501 1496 1496 1496 1497 1508 1521 1505 1500 1498 1501 1504 1512 1531 1545 1551 1572 1563 1559 1557 1541 1540 1535 1537 1537 1540 1541
1488 1486 1488 1488 1490 1492 1507 1509 1498 1493 1494 1495 1494 1495 1495 1492 1490 1501 1504 1498 1493 1497 1497 1504 1516 1514 1507 1516 1518 1517 1521 1533 1543 1555 1565 1580 1571 1547 1548 1544 1542 1542 1542 1542 1541
1491 1492 1492 1492 1495 1498 1502 1498 1493 1490 1489 1489 1488 1489 1490 1487 1497 1499 1501 1499 1495 1495 1506 1508 1524 1533 1521 1514 1514 1514 1522 1533 1548 1547 1563 1566 1574 1554 1552 1549 1547 1547 1545 1545 1546
1495 1494 1493 1494 1503 1503 1497 1494 1491 1489 1486 1485 1484 1479 1476 1485 1499 1496 1497 1499 1496 1499 1506 1506 1533 1546 1537 1527 1518 1525 1525 1532 1539 1546 1556 1570 1575 1558 1558 1554 1554 1554 1554 1553 1553
1499 1500 1496 1495 1497 1498 1496 1493 1490 1481 1479 1478 1476 1476 1478 1486 1486 1497 1500 1500 1497 1498 1502 1504 1535 1537 1552 1541 1534 1531 1529 1529 1534 1552 1559 1562 1562 1560 1561 1561 1560 1561 1561 1561 1561
1503 1505 1506 1506 1497 1498 1496 1490 1486 1482 1474 1473 1474 1473 1474 1492 1494 1500 1499 1501 1500 1503 1504 1511 1535 1530 1533 1531 1528 1528 1531 1529 1527 1534 1545 1557 1560 1560 1560 1561 1561 1561 1561 1562 1563
1508 1507 1506 1503 1501 1498 1497 1490 1488 1480 1473 1473 1476 1475 1474 1485 1485 1498 1497 1503 1507 1507 1511 1516 1537 1532 1538 1534 1530 1531 1536 1534 1536 1540 1547 1553 1561 1559 1559 1560 1560 1561 1562 1562 1563
1510 1509 1508 1505 1503 1501 1501 1495 1488 1482 1476 1478 1474 1473 1479 1480 1479 1484 1490 1495 1500 1509 1516 1521 1533 1543 1544 1540 1534 1546 1542 1540 1541 1543 1543 1557 1558 1557 1558 1559 1561 1561 1562 1562 1561